Location: Makanda
(37.6176°N, 89.2090°W)
Time: 13:11:59
(UTC+00:00)

Iridium 2 - Pass Details

Date: 23 September 2019
Orbit: 505 x 517 km, 85.5° (Epoch: 16 October)

Event Time Altitude Azimuth Distance (km) Brightness Sun altitude
Rises 11:08:32 0° 353° (N) 2,643 7.3 -8.1°
Reaches altitude 10° 11:10:40 10° 351° (N) 1,750 6.4 -7.7°
Maximum altitude 11:14:28 67° 269° (W) 559 3.6 -6.9°
Drops below altitude 10° 11:18:13 10° 186° (S) 1,730 6.3 -6.2°
Sets 11:20:20 0° 184° (S) 2,609 7.2 -5.8°
